Flag for Switzerland Weather past 2 weeks in Schaffhausen, Schaffhausen, Switzerland

Now
33 °F

Chilly.


Feels Like: 29 °F
Forecast: 26 / 43 °F
Wind: 3 mph from North

Location: Zurich-Kloten

Current Time: Mar 5, 2015 at 8:37:08 AM

Latest Report: Mar 5, 2015 at 8:00 AM


Visibility: N/A

Pressure: 30.60 "Hg

Humidity: 87%

Dew point: 29 °F

Location of SchaffhausenLocation

Historic Weather in Schaffhausen — Graph

°F

Schaffhausen temperature yesterday

Maximum temperature yesterday: 44 °F (at 3:00 PM)
Minimum temperature yesterday: 32 °F (at 11:00 PM)
Average temperature yesterday: 39 °F

Past Weeks' High & Low Weather Summary

 TemperatureHumidityPressure
High52 °F (Feb 20, 3:00 PM)98% (Feb 22, 6:00 AM)30.76 "Hg (Feb 22, 6:00 AM)
Low24 °F (Feb 26, 6:00 AM)31% (Feb 20, 3:00 PM)29.59 "Hg (Feb 21, 11:00 AM)
Average37 °F79%30.09 "Hg
* Reported Feb 18 7:00 AM — Mar 5 7:00 AM, Schaffhausen, Weather by CustomWeather, © 2015

Note: Actual official high and low records may vary slightly from our data, if they occured in-between our weather recording intervals... More about our weather records

Advertising

Schaffhausen weather history for previous 24 hours

 ConditionsComfort  
Time TempWeatherWind HumidityBarometerVisibility
7:00 AM
Thu, Mar 5
32 °FOvercast.1 mph90%30.59 "Hg5 mi
6:00 AM31 °FChilly.3 mph94%30.59 "HgN/A
5:00 AM31 °FChilly.No wind94%30.58 "HgN/A
3:00 AM32 °FChilly.1 mph93%30.57 "HgN/A
2:00 AM32 °FChilly.1 mph94%30.56 "HgN/A
1:00 AM32 °FOvercast.2 mph93%30.55 "Hg9 mi
12:00 AM32 °FChilly.2 mph92%30.54 "HgN/A
11:00 PM
Wed, Mar 4
32 °FChilly.2 mph91%30.53 "HgN/A
9:00 PM34 °FChilly.3 mph86%30.48 "HgN/A
8:00 PM33 °FChilly.6 mph85%30.46 "HgN/A
7:00 PM38 °FPassing clouds.3 mph59%30.43 "Hg22 mi
6:00 PM40 °FChilly.6 mph59%30.39 "HgN/A
5:00 PM42 °FQuite cool.2 mph50%30.36 "HgN/A
4:00 PM40 °FLight rain. Partly sunny.8 mph58%30.35 "Hg19 mi
3:00 PM44 °FQuite cool.7 mph42%30.33 "HgN/A
2:00 PM43 °FQuite cool.8 mph58%30.35 "HgN/A
1:00 PM41 °FOvercast.8 mph71%30.37 "Hg19 mi
12:00 PM40 °FChilly.6 mph72%30.37 "HgN/A
11:00 AM39 °FChilly.6 mph79%30.38 "HgN/A
10:00 AM39 °FOvercast.5 mph78%30.37 "Hg16 mi
9:00 AM38 °FChilly.2 mph85%30.36 "HgN/A
8:00 AM37 °FChilly.5 mph83%30.35 "HgN/A
Weather by CustomWeather, © 2015

See weather overviewHow to use our weather pages